Location: Antoign�
(47.0844°N, 0.1131°W)
Time: 08:09:29
(UTC+00:00)

Cosmos 1271 Rocket - Pass Details

Date: 03 March 2021
Orbit: 498 x 544 km, 81.2° (Epoch: 11 April)

Event Time Altitude Azimuth Distance (km) Brightness Sun altitude
Rises 18:28:44 0° 345° (NNW) 2,601 6.5 -7.6°
Reaches altitude 10° 18:30:53 10° 342° (NNW) 1,713 5.6 -7.9°
Maximum altitude 18:34:34 59° 263° (W) 587 3.4 -8.6°
Drops below altitude 10° 18:38:15 10° 183° (S) 1,708 5.4 -9.2°
Sets 18:40:23 0° 180° (S) 2,593 6.3 -9.5°
